FENGYUN 1C DEB, 30833

Orbit data source: Space-Track

FENGYUN 1C DEB, 30833 is space debris in SSO originally from a launch on Mon, 10 May 1999 UTC launched from the Taiyaun Space Center, China (TSC). Fengyun 1C debris stems from the Chinese weather satellite Fengyun-1C, which was intentionally destroyed by a Chinese anti-satellite missile in 2007. This event dramatically increased the amount of space debris, with thousands of trackable fragments posing hazards to satellites and human spaceflight. The Fengyun 1C debris cloud has become a focal point in discussions about space sustainability and the need for international regulations to prevent the creation of new debris.

Loading next visibility...
Identifier
30833, 1999-025AVT
Orbit
SSO
Country
Flag of CNCN / PRC
Related business
Manufacturer
Unknown
Mission
Spacecraft
Bus & Motor
Unknown
Mass
Unknown
Launch date (UTC)
1999-05-10 (26 years ago)
Launch vehicle
Unknown
Launch site
Taiyaun Space Center, China (TSC)
Object type
Payload
Rocket body
Debris
Shape & HBR
Unknown shape, 0.1 m
Radar Cross Section
Small (<0.1 m²)

Expand to show TLE details & history
Last TLE update: 8 hours ago

TLE from 8 hours ago
0 FENGYUN 1C DEB
1 30833U 99025AVT 25309.14412767  .00001348  00000-0  57784-3 0  9993
2 30833  99.8433  90.5757 0032195 286.2483  73.5152 14.26591261638750
Epoch: 2025-11-05T03:27Z
TLE epoch observation values (Epoch: 2025-11-05T03:27:32.630Z)
Latitude
-0.00007°
Longitude
-5.93126°
Altitude
799.539 km
Speed
7.457 km/s
True Right ascension
06h 02m 18s
True Declination
0° 00' 00"
Sunlit
Object was in full shadow at epoch
Visualization orbit readout
Latitude
Unknown
Longitude
Unknown
Altitude
Unknown
Speed
Unknown
Apparent Right ascension
Unknown
Apparent Declination
Unknown
Sunlit
N/A
Visualization observer readout
Local Sidereal Time
07:18:08
Azimuth
Unknown
Elevation
Unknown
Doppler factor
Unknown
Orbital elements
Apogee altitude
823.466 km
Perigee altitude
777.244 km
Semi-major axis
7,178.492 km
Eccentricity
0.00322
Inclination
99.8433°
RAAN
90.5757°
Arg. of periapsis
286.2483°
True anomaly
73.86936°
Mean anomaly
73.5152°
Eccentric anomaly
73.69224°
Mean motion
3.56856 °/min
Orbital period
100.88 mins
BSTAR
0.00057784
Loading maneuver chart data...
Computing Atmospheric mass density...

Documentation

Showing up to 5 results
|